STARLINK-35128

Last updated on Sun Oct 19 2025 00:02:05 GMT+0000 (Coordinated Universal Time)

1 65628U 25210G 25291.27068521 .00055246 00000+0 13799-2 0 9999 2 65628 53.1599 250.9065 0001158 92.9128 267.2009 15.39648292 5891

Satellite not in orbit

STARLINK-35128